Location: Costa Valle Imagna
(45.8000°N, 9.5000°E)
Time: 23:06:09
(UTC+00:00)

FENGYUN 3A - Pass Details

Date: 17 February 2020
Orbit: 824 x 836 km, 98.4° (Epoch: 05 April)

Event Time Altitude Azimuth Distance (km) Brightness Sun altitude
Rises 04:49:26 0° 12° (NNE) 3,396 7.0 -16.8°
Reaches altitude 10° 04:51:48 10° 12° (NNE) 2,458 6.2 -16.4°
Maximum altitude 04:57:15 81° 286° (WNW) 852 3.6 -15.4°
Drops below altitude 10° 05:02:41 10° 200° (SSW) 2,442 5.9 -14.5°
Sets 05:05:01 0° 199° (SSW) 3,372 6.7 -14.1°
